Location: Street
(51.1247°N, 2.7429°W)
Time: 10:18:54
(UTC+01:00)

UWE-3 - Pass Details

Date: 09 April 2023
Orbit: 576 x 669 km, 97.7° (Epoch: 02 June)

Event Time Altitude Azimuth Distance (km) Brightness Sun altitude
Rises 05:01:17 0° 8° (N) 2,949 ? -13.7°
Reaches altitude 10° 05:03:38 10° 0° (N) 2,019 ? -13.4°
Maximum altitude 05:07:40 38° 293° (WNW) 954 ? -12.8°
Enters shadow 05:10:16 19° 235° (SW) 1,474 ? -12.5°
